Location: Kikino
(54.4440°N, 112.0940°W)
Time: 00:29:34
(UTC+00:00)

ISS - Pass Details

Date: 25 April 2024
Orbit: 409 x 414 km, 51.6° (Epoch: 23 May)

Event Time Altitude Azimuth Distance (km) Brightness Sun altitude
Exits shadow 10:26:34 - 172° (S) 1,560 -1.2 -12.2°
Reaches altitude 10° 10:27:03 10° 164° (SSE) 1,475 -1.3 -12.1°
Maximum altitude 10:28:18 12° 142° (SE) 1,374 -1.2 -12.0°
Drops below altitude 10° 10:29:33 10° 120° (ESE) 1,477 -0.8 -11.8°
Sets 10:32:44 0° 86° (E) 2,342 0.9 -11.5°
